Flag for France Weather past 2 weeks in Ajaccio, Corsica, France

Now
72 °F

Clear.


Feels Like: 74 °F
Forecast: 68 / 80 °F
Wind: 3 mph from Northeast

Location: Ajaccio Airport

Current Time: Sep 17, 2014 at 9:41:47 PM

Latest Report: Sep 17, 2014 at 9:00 PM


Visibility: N/A

Pressure: 29.86 "Hg

Humidity: 73%

Dew point: 63 °F

Location of AjaccioLocation

Historic Weather in Ajaccio — Graph

°F

Ajaccio temperature yesterday

Maximum temperature yesterday: 84 °F (at 4:30 PM)
Minimum temperature yesterday: 59 °F (at 6:00 AM)
Average temperature yesterday: 72 °F

Past Weeks' High & Low Weather Summary

 TemperatureHumidityPressure
High86 °F (Sep 17, 4:30 PM)94% (Sep 7, 12:30 AM)30.04 "Hg (Sep 7, 12:30 AM)
Low59 °F (Sep 3, 3:00 AM)34% (Sep 2, 8:00 PM)29.77 "Hg (Sep 2, 8:00 PM)
Average72 °F72%29.91 "Hg
* Reported Sep 2 8:00 PM — Sep 17 8:30 PM, Ajaccio, Weather by CustomWeather, © 2014

Note: Actual official high and low records may vary slightly from our data, if they occured in-between our weather recording intervals... More about our weather records

Advertising

Ajaccio weather history for previous 24 hours

 ConditionsComfort  
Time TempWeatherWind HumidityBarometerVisibility
8:30 PM
Sep 17
73 °FClear.5 mph74%29.86 "HgN/A
8:00 PM75 °FClear.2 mph74%29.86 "HgN/A
7:30 PM75 °FClear.3 mph78%29.86 "HgN/A
7:00 PM77 °FClear.6 mph69%29.86 "HgN/A
6:30 PM79 °FClear.6 mph65%29.86 "HgN/A
6:00 PM81 °FPassing clouds.5 mph51%29.86 "HgN/A
5:30 PM82 °FSunny.8 mph48%29.86 "Hg10 mi
5:00 PM84 °FPassing clouds.7 mph48%29.83 "HgN/A
4:30 PM86 °FSunny.7 mph46%29.83 "Hg10 mi
4:00 PM84 °FSunny.8 mph55%29.83 "Hg10 mi
3:00 PM82 °FScattered clouds.6 mph58%29.83 "HgN/A
2:30 PM82 °FScattered clouds.9 mph48%29.83 "HgN/A
2:05 PM81 °FPartly sunny.8 mph54%29.86 "HgN/A
1:30 PM77 °FPartly sunny.3 mph65%29.89 "HgN/A
1:00 PM77 °FPartly sunny.7 mph65%29.92 "HgN/A
12:30 PM77 °FLight rain. Partly sunny.3 mph65%29.92 "HgN/A
12:00 PM79 °FBroken clouds.5 mph54%29.92 "HgN/A
11:30 AM81 °FBroken clouds.3 mph48%29.92 "HgN/A
11:09 AM79 °FBroken clouds.No wind51%29.92 "HgN/A
10:30 AM75 °FBroken clouds.3 mph57%29.92 "HgN/A
10:00 AM72 °FBroken clouds.7 mph61%29.92 "HgN/A
9:30 AM68 °FBroken clouds.5 mph69%29.92 "HgN/A
9:00 AM68 °FPartly sunny.No wind69%29.92 "HgN/A
8:30 AM66 °FPartly sunny.5 mph73%29.92 "HgN/A
8:00 AM66 °FPassing clouds.7 mph73%29.89 "HgN/A
7:30 AM63 °FPassing clouds.7 mph77%29.89 "HgN/A
7:15 AM63 °FClear.6 mph77%29.89 "Hg10 mi
6:43 AM63 °FClear.3 mph77%29.89 "Hg10 mi
6:30 AM63 °FClear.5 mph83%29.89 "Hg10 mi
6:00 AM63 °FClear.5 mph83%29.89 "Hg10 mi
5:30 AM64 °FClear.5 mph78%29.89 "HgN/A
5:00 AM64 °FClear.3 mph78%29.92 "HgN/A
4:30 AM64 °FClear.6 mph78%29.92 "HgN/A
4:00 AM63 °FClear.7 mph83%29.92 "HgN/A
3:30 AM63 °FClear.7 mph83%29.89 "HgN/A
3:00 AM64 °FClear.6 mph78%29.92 "HgN/A
2:30 AM63 °FClear.6 mph83%29.92 "HgN/A
2:00 AM64 °FClear.6 mph78%29.92 "HgN/A
1:30 AM64 °FClear.6 mph78%29.92 "HgN/A
1:00 AM64 °FClear.7 mph78%29.92 "HgN/A
12:30 AM66 °FClear.7 mph73%29.92 "HgN/A
12:00 AM66 °FClear.6 mph78%29.92 "HgN/A
11:30 PM
Sep 16
66 °FClear.7 mph78%29.92 "HgN/A
11:00 PM66 °FClear.5 mph78%29.92 "HgN/A
10:30 PM68 °FClear.3 mph73%29.92 "HgN/A
10:00 PM70 °FClear.2 mph69%29.92 "HgN/A
9:30 PM72 °FClear.3 mph65%29.92 "HgN/A
9:00 PM72 °FClear.5 mph69%29.92 "HgN/A
Weather by CustomWeather, © 2014

See weather overviewHow to use our weather pages